STARLINK-35089

Last updated on Thu Oct 02 2025 00:02:05 GMT+0000 (Coordinated Universal Time)

1 65484U 25195AC 25274.40736039 .00065140 00000+0 11686-2 0 9990 2 65484 53.1595 280.3697 0001413 78.8764 281.2403 15.49330686 5551

Satellite not in orbit

STARLINK-35089